Wind_Speed
47 61 57 57 54 55 52 54 52 47 45 46 52 48 46 46 36 39 45 30 29 31 32 31 32 33 38 41 41 34 29 24 19 21 20 24 22 23 26 28 28 30 30 29 27
52 55 59 55 56 55 56 56 55 60 57 55 56 52 50 47 44 41 38 30 34 32 36 38 38 39 40 41 33 31 24 22 22 24 20 21 20 25 25 25 27 31 30 26 26
24 35 49 61 58 65 61 76 61 57 58 58 60 60 57 66 65 44 40 38 40 39 41 44 40 38 40 36 34 28 23 26 25 25 21 20 20 21 24 27 29 34 30 26 28
22 23 25 26 34 44 47 60 60 69 67 64 59 40 40 44 49 45 51 46 43 47 51 49 43 34 34 33 32 29 25 27 23 21 22 21 23 22 26 30 33 34 29 29 28
24 25 27 28 28 29 28 29 28 26 27 27 30 40 33 33 33 47 44 45 51 50 44 41 38 32 32 31 31 30 26 30 27 21 23 22 22 23 26 29 30 30 30 30 30
30 30 29 30 31 32 32 32 32 33 34 32 35 37 33 26 29 37 33 30 34 40 41 40 37 31 28 28 31 32 29 30 33 24 20 23 25 24 27 26 24 26 30 29 31
37 36 36 36 35 36 36 37 38 37 37 38 39 40 35 21 29 32 31 27 30 33 36 37 33 31 28 31 34 30 32 31 26 26 28 30 27 28 29 25 24 25 29 30 31
42 42 43 42 42 42 42 42 42 42 42 41 39 39 33 30 32 29 32 30 32 32 29 32 32 31 31 35 29 31 32 26 28 29 36 35 30 24 26 25 25 25 27 30 33
39 39 41 41 42 43 44 46 46 46 44 44 43 43 35 31 35 34 31 31 33 33 33 34 34 34 36 33 30 32 27 25 27 32 32 33 27 21 23 32 24 27 27 29 31
43 42 40 39 38 37 36 36 37 37 36 36 34 34 33 36 34 35 33 33 34 35 37 37 36 37 36 33 28 27 28 29 26 31 26 24 29 25 25 29 28 28 28 25 29
52 50 48 46 44 43 42 41 40 39 36 33 31 28 26 28 32 37 37 36 37 39 38 37 38 35 26 24 23 28 26 26 25 29 28 30 32 28 30 30 28 26 26 26 29
59 58 57 55 52 51 49 48 46 45 41 37 35 30 28 25 26 29 31 35 34 34 33 36 33 20 24 26 27 24 22 23 28 30 34 34 32 32 30 29 27 24 22 23 28
67 66 64 61 57 57 55 53 52 50 49 42 39 38 32 31 29 30 32 28 26 29 31 28 21 26 25 27 26 20 20 22 28 32 35 34 29 30 25 26 24 22 25 24 30
70 70 70 69 63 61 60 57 55 54 53 49 42 41 39 37 35 31 31 29 29 29 27 31 29 32 26 30 20 24 20 23 28 32 32 30 28 28 25 25 23 23 24 25 28
77 75 74 72 71 67 66 63 59 57 57 54 46 44 43 43 34 33 30 34 32 27 31 24 29 21 29 23 26 24 26 27 29 30 31 24 29 24 24 20 18 19 22 24 18
88 83 81 78 75 74 71 69 65 62 63 61 55 49 45 43 40 39 39 37 33 35 32 29 27 29 30 29 31 28 29 28 27 30 31 22 26 18 16 18 14 17 20 17 14
92 92 89 84 81 80 78 75 73 73 66 68 62 54 50 44 42 43 43 41 37 34 35 31 31 32 30 31 24 27 27 26 27 26 23 24 24 17 19 19 16 18 17 16 16
81 91 94 91 88 87 84 82 83 70 72 72 66 63 60 50 46 42 44 46 43 39 32 34 37 27 23 23 21 26 25 25 23 21 14 24 20 11 21 19 17 18 11 11 11
54 61 80 92 91 92 91 91 74 72 76 72 71 72 65 60 54 48 42 44 44 42 40 35 32 26 28 24 27 29 27 23 24 25 26 18 18 15 16 16 15 15 11 11 10
46 47 53 63 76 77 88 90 78 75 80 79 77 74 70 65 60 55 50 47 44 42 42 40 36 32 27 30 34 31 26 24 22 23 21 11 9 9 12 15 16 16 13 10 12
40 41 38 44 55 63 76 88 83 82 84 82 81 76 73 70 62 58 54 49 46 40 39 42 38 37 33 40 36 33 28 23 26 23 17 12 9 16 15 17 16 18 14 13 11
39 36 31 36 43 53 62 79 85 91 89 85 85 79 75 70 67 62 57 52 50 46 41 37 38 39 35 34 34 36 30 29 28 26 24 20 11 18 14 18 14 15 16 12 10
27 27 28 25 34 40 46 62 79 90 89 90 87 81 76 73 65 61 58 56 52 49 44 42 48 44 39 46 44 40 34 31 28 28 25 18 6 16 17 19 14 15 14 8 5
28 29 28 28 32 29 39 51 68 86 88 88 89 87 79 78 72 63 61 60 56 52 48 45 46 45 45 39 36 37 33 31 29 28 22 20 12 18 16 19 14 12 13 8 7
27 29 27 24 24 31 26 34 52 76 83 83 84 80 79 76 71 65 62 63 58 55 51 49 50 48 44 40 42 38 35 32 33 26 27 18 12 15 18 20 15 9 13 8 10
4 3 12 19 20 21 26 30 43 59 81 77 78 74 73 76 69 65 62 64 62 60 57 53 50 50 49 45 44 41 39 37 33 25 26 25 17 20 23 22 14 11 14 9 13
6 11 11 17 16 12 12 21 34 45 65 77 62 61 76 73 73 73 73 69 67 64 59 57 54 53 52 47 43 44 42 37 33 26 26 22 14 25 26 24 17 13 11 10 14
Wind_Direction
239 231 229 232 233 235 237 235 238 238 241 242 243 241 241 246 254 261 255 259 260 265 269 268 273 284 290 297 299 298 300 302 295 285 285 291 291 282 287 290 292 293 294 298 301
236 237 227 232 231 230 236 241 244 245 249 248 250 249 246 251 250 265 265 249 261 271 280 285 285 283 288 296 293 295 294 293 287 286 286 284 289 291 291 288 289 295 296 299 306
238 244 247 245 250 243 248 245 248 244 245 251 250 252 258 247 256 255 253 247 254 264 275 283 285 284 285 287 291 289 288 285 293 285 278 285 289 300 296 289 298 298 297 306 311
258 255 248 246 246 247 251 250 245 247 252 256 258 265 264 252 246 250 256 265 264 268 270 275 280 275 278 282 280 280 281 281 280 277 276 282 279 286 294 290 299 296 304 315 317
260 255 257 251 252 249 248 244 244 255 255 256 265 266 266 262 255 256 257 257 259 263 266 264 265 269 275 276 274 281 277 275 278 261 276 272 278 292 291 290 294 297 315 320 322
261 258 256 259 258 257 255 256 255 255 258 258 259 264 265 266 254 259 261 257 252 253 253 256 265 262 263 267 274 276 279 282 290 263 259 271 272 281 296 296 303 307 313 322 323
258 256 255 252 251 253 254 254 256 257 259 260 260 260 259 256 249 252 255 252 253 248 253 252 251 257 265 264 267 282 288 295 292 269 265 262 270 278 289 288 298 310 317 323 320
257 257 256 255 254 252 251 252 254 256 257 259 260 262 263 248 250 246 250 248 248 253 248 241 247 255 262 268 281 282 284 292 282 273 270 266 264 283 288 300 301 307 316 321 319
257 256 254 254 254 253 253 253 253 254 256 255 256 257 254 243 247 245 245 246 243 245 242 243 249 255 259 269 276 283 284 277 264 285 287 276 269 279 283 298 303 306 315 316 315
251 252 250 249 249 249 248 248 249 248 248 251 252 255 255 246 244 247 245 243 244 241 240 246 256 259 261 270 279 278 275 269 270 279 275 278 278 288 296 296 301 299 307 313 316
253 248 247 248 247 247 248 248 247 248 248 248 248 247 246 242 236 240 242 239 239 241 245 251 254 259 272 262 258 254 259 267 271 272 277 274 280 296 297 294 296 293 302 307 313
253 252 251 247 244 243 243 244 245 247 244 244 244 239 243 237 233 231 239 242 244 248 247 248 254 262 252 250 250 256 262 263 263 270 270 271 286 294 286 286 296 293 293 298 302
254 252 251 250 249 249 246 244 243 243 247 240 240 239 235 238 236 232 234 238 238 238 241 247 249 242 240 245 249 256 262 262 264 265 278 284 292 290 296 296 300 295 289 293 296
256 252 249 249 247 248 247 246 245 244 244 245 237 239 232 238 240 236 235 235 235 238 242 239 233 234 238 244 250 259 263 265 269 276 281 291 296 293 297 304 301 291 287 289 297
253 251 250 247 245 243 245 245 244 243 245 244 235 239 236 239 237 236 234 237 239 239 237 242 241 243 240 247 249 252 256 261 267 277 285 296 289 295 302 304 299 298 286 289 301
257 251 246 246 245 244 242 243 242 240 238 243 240 236 235 235 236 232 233 234 233 233 234 233 231 227 227 234 242 248 255 263 272 277 283 294 287 303 298 300 306 295 284 289 296
251 251 249 243 242 242 240 239 238 236 238 240 242 240 237 232 234 233 235 237 238 239 237 227 233 227 225 233 243 252 260 268 272 272 288 283 288 303 283 292 299 297 288 280 300
255 247 245 244 239 238 238 236 235 235 237 242 241 239 239 235 232 228 232 235 234 235 242 236 231 224 235 244 255 259 260 257 261 272 281 281 294 294 282 289 299 288 287 292 315
266 259 248 241 240 235 234 234 233 235 235 237 240 243 239 238 234 232 232 240 239 239 237 236 230 228 235 237 241 253 251 264 262 262 265 266 291 290 279 299 290 281 275 286 316
267 267 261 250 242 236 233 229 229 231 233 235 235 239 242 240 239 238 234 233 235 233 231 235 233 232 231 234 237 244 250 256 260 260 253 269 289 248 266 275 272 265 275 298 302
264 267 264 250 242 239 234 230 225 227 230 232 234 235 237 240 236 237 236 235 234 232 230 233 228 231 228 234 241 245 250 256 254 259 255 250 267 252 242 265 265 268 279 319 310
264 265 258 255 248 240 239 228 221 223 225 228 231 231 234 236 236 234 233 231 231 236 231 231 231 234 227 238 239 246 244 246 247 252 260 249 252 253 248 260 267 270 274 287 313
266 260 254 247 246 243 237 222 216 219 222 225 227 229 228 233 233 229 229 230 228 227 224 221 222 224 220 226 229 235 239 242 249 250 254 256 255 242 255 254 263 268 285 280 247
284 273 261 249 238 243 232 228 219 214 217 222 225 227 224 229 230 228 226 226 226 228 227 223 228 230 231 235 235 238 242 243 249 253 265 268 240 241 248 251 263 266 280 272 226
284 270 250 232 216 229 238 228 216 212 213 218 220 224 225 225 228 227 224 224 224 227 225 223 225 225 224 228 231 233 236 238 242 251 261 262 236 219 228 239 250 266 275 255 223
347 134 187 210 221 227 234 233 218 214 211 210 216 217 221 224 220 223 222 223 222 223 226 224 222 224 224 224 230 227 232 236 236 236 245 250 228 204 216 232 226 264 272 231 219
335 272 228 228 221 212 232 233 222 221 218 204 208 200 216 214 218 218 220 221 221 221 224 225 219 220 223 225 226 226 228 234 238 233 243 251 254 213 219 228 229 237 248 229 219
Height
5832 5836 5839 5842 5845 5848 5851 5853 5855 5857 5860 5862 5865 5866 5868 5869 5870 5872 5874 5875 5872 5871 5872 5875 5875 5873 5873 5871 5871 5869 5870 5869 5867 5863 5863 5861 5860 5857 5855 5852 5851 5846 5843 5840 5837
5825 5828 5831 5835 5837 5840 5842 5844 5845 5848 5849 5852 5856 5858 5860 5862 5862 5866 5866 5866 5867 5867 5867 5867 5868 5868 5867 5866 5864 5865 5865 5864 5862 5858 5857 5856 5856 5853 5851 5847 5844 5841 5837 5835 5832
5819 5822 5824 5826 5828 5832 5834 5835 5838 5840 5842 5843 5846 5847 5848 5851 5854 5859 5859 5857 5860 5861 5861 5862 5862 5863 5862 5861 5859 5860 5861 5857 5857 5854 5852 5852 5851 5848 5846 5842 5840 5836 5833 5830 5828
5815 5816 5818 5818 5821 5823 5823 5825 5827 5829 5830 5833 5835 5835 5837 5837 5842 5847 5848 5848 5852 5854 5854 5856 5857 5856 5856 5855 5854 5853 5854 5852 5851 5849 5848 5847 5846 5844 5842 5840 5836 5832 5830 5827 5823
5809 5810 5811 5812 5814 5815 5815 5817 5818 5820 5822 5823 5823 5826 5829 5830 5836 5833 5838 5841 5843 5846 5848 5849 5849 5850 5850 5850 5848 5847 5849 5845 5845 5843 5843 5842 5841 5839 5837 5836 5832 5828 5826 5823 5819
5801 5802 5803 5804 5805 5806 5807 5808 5810 5813 5815 5816 5819 5820 5822 5827 5826 5823 5831 5833 5835 5837 5840 5842 5844 5844 5843 5844 5844 5843 5843 5843 5841 5838 5838 5837 5836 5834 5833 5830 5828 5825 5821 5819 5814
5791 5792 5793 5795 5796 5797 5799 5801 5803 5805 5808 5809 5811 5812 5816 5825 5820 5820 5824 5827 5829 5831 5834 5836 5837 5837 5840 5839 5837 5840 5839 5838 5836 5835 5832 5831 5831 5830 5827 5827 5824 5821 5818 5814 5811
5782 5782 5783 5785 5786 5788 5790 5792 5794 5797 5799 5800 5802 5803 5808 5815 5811 5815 5816 5819 5822 5823 5827 5829 5831 5833 5833 5833 5836 5836 5834 5834 5830 5830 5827 5826 5826 5826 5823 5822 5822 5819 5816 5811 5807
5772 5773 5774 5775 5776 5779 5781 5782 5785 5786 5789 5791 5793 5794 5801 5806 5805 5808 5810 5812 5815 5817 5820 5822 5825 5827 5826 5829 5831 5830 5830 5829 5828 5822 5822 5822 5824 5823 5821 5818 5819 5815 5813 5809 5805
5762 5763 5764 5766 5767 5769 5770 5772 5774 5777 5779 5781 5784 5787 5791 5797 5798 5800 5803 5805 5808 5810 5812 5815 5818 5819 5822 5824 5825 5824 5822 5823 5823 5820 5818 5817 5817 5819 5819 5816 5814 5812 5809 5806 5802
5749 5750 5752 5754 5756 5758 5761 5762 5766 5767 5771 5774 5775 5779 5780 5783 5789 5792 5794 5797 5800 5802 5807 5810 5811 5813 5819 5817 5817 5816 5817 5819 5818 5815 5814 5813 5812 5814 5813 5810 5809 5807 5804 5801 5797
5734 5735 5737 5740 5743 5745 5748 5750 5753 5756 5760 5763 5766 5771 5774 5778 5781 5783 5786 5789 5793 5797 5801 5801 5803 5812 5810 5809 5809 5811 5812 5814 5812 5810 5808 5808 5809 5809 5806 5805 5805 5802 5800 5797 5794
5715 5717 5720 5723 5728 5729 5733 5737 5739 5742 5745 5754 5757 5762 5766 5769 5773 5777 5779 5783 5787 5790 5791 5796 5803 5801 5802 5802 5804 5806 5807 5808 5806 5804 5801 5802 5804 5801 5801 5800 5799 5797 5795 5793 5790
5694 5696 5700 5705 5712 5713 5716 5723 5725 5729 5730 5739 5747 5752 5756 5760 5763 5768 5773 5778 5779 5782 5787 5788 5793 5792 5796 5796 5799 5800 5802 5801 5799 5797 5798 5799 5799 5796 5796 5795 5793 5791 5790 5788 5786
5669 5674 5678 5683 5691 5696 5701 5705 5709 5715 5717 5725 5734 5738 5745 5749 5760 5761 5767 5768 5772 5777 5778 5785 5785 5789 5790 5792 5793 5795 5794 5794 5794 5793 5793 5797 5793 5793 5792 5791 5789 5788 5786 5784 5782
5635 5644 5653 5660 5669 5672 5680 5685 5691 5697 5701 5708 5718 5727 5734 5741 5747 5752 5756 5761 5765 5767 5770 5775 5779 5780 5783 5785 5784 5786 5786 5789 5790 5789 5788 5791 5789 5791 5789 5787 5786 5784 5782 5781 5779
5602 5611 5621 5634 5644 5647 5655 5662 5667 5676 5695 5693 5705 5715 5722 5730 5735 5742 5746 5751 5755 5758 5762 5769 5770 5773 5776 5776 5779 5780 5782 5785 5786 5784 5785 5783 5784 5787 5784 5782 5782 5780 5778 5777 5775
5567 5578 5588 5602 5611 5619 5626 5635 5641 5676 5680 5682 5692 5698 5707 5718 5724 5731 5736 5739 5745 5750 5756 5760 5763 5768 5770 5772 5775 5774 5777 5780 5780 5781 5785 5779 5781 5784 5778 5777 5778 5776 5775 5774 5772
5543 5548 5557 5568 5578 5586 5593 5600 5643 5661 5663 5670 5674 5678 5693 5702 5713 5719 5726 5730 5737 5744 5750 5753 5758 5763 5762 5767 5769 5768 5769 5775 5776 5777 5776 5779 5778 5778 5774 5774 5774 5772 5772 5771 5770
5527 5530 5535 5539 5547 5553 5556 5594 5627 5641 5642 5649 5654 5665 5674 5687 5699 5707 5714 5720 5724 5733 5741 5745 5750 5754 5759 5759 5759 5762 5765 5769 5770 5771 5772 5775 5775 5776 5773 5772 5770 5769 5769 5769 5768
5515 5515 5517 5518 5520 5526 5529 5585 5606 5615 5615 5627 5639 5649 5659 5667 5682 5691 5703 5710 5717 5725 5731 5736 5742 5746 5750 5748 5753 5756 5760 5764 5765 5766 5768 5772 5775 5770 5768 5768 5767 5766 5767 5767 5765
5500 5504 5503 5502 5505 5510 5516 5564 5574 5580 5586 5605 5612 5631 5643 5655 5666 5677 5690 5699 5707 5714 5721 5729 5732 5736 5744 5746 5748 5748 5755 5757 5758 5761 5763 5765 5771 5766 5766 5765 5765 5764 5764 5764 5764
5489 5491 5493 5491 5494 5500 5513 5527 5535 5552 5569 5581 5591 5610 5628 5636 5648 5665 5676 5686 5693 5699 5709 5714 5715 5723 5733 5732 5736 5740 5746 5750 5753 5755 5757 5760 5765 5762 5763 5762 5762 5762 5763 5763 5762
5479 5480 5482 5482 5487 5491 5499 5504 5516 5532 5547 5561 5576 5591 5612 5621 5635 5648 5662 5670 5681 5689 5698 5703 5709 5716 5723 5732 5736 5737 5741 5744 5747 5747 5752 5754 5759 5760 5760 5759 5759 5760 5761 5761 5761
5470 5467 5468 5473 5478 5485 5487 5494 5502 5515 5528 5540 5560 5577 5593 5607 5621 5633 5648 5657 5667 5676 5683 5692 5700 5707 5714 5720 5723 5729 5733 5736 5738 5744 5745 5750 5752 5754 5756 5756 5756 5757 5758 5759 5759
5463 5460 5462 5469 5473 5476 5480 5489 5492 5498 5509 5525 5540 5558 5573 5591 5605 5620 5631 5642 5653 5662 5668 5682 5694 5698 5703 5711 5715 5720 5724 5727 5731 5737 5739 5742 5747 5749 5750 5752 5753 5753 5754 5756 5758
5465 5462 5463 5467 5469 5472 5475 5477 5481 5490 5496 5513 5529 5540 5553 5568 5585 5596 5611 5626 5638 5650 5658 5670 5682 5687 5695 5702 5706 5711 5715 5720 5725 5731 5734 5737 5743 5744 5745 5747 5750 5750 5751 5754 5756